Home   Weather   Italy   Latiano   Past weeks
Flag for Italy

Past Weather in Latiano, Italy — Yesterday and Last 2 Weeks

Currently: 73 °F. Passing clouds. (Weather station: Brindisi Airport, Italy). See more current weather

Past Weather in Latiano — Graph

°F

Latiano Temperature Yesterday

Maximum temperature yesterday: 86 °F (at 2:50 pm)
Minimum temperature yesterday: 66 °F (at 4:20 am)
Average temperature yesterday: 75 °F

High & Low Weather Summary for the Past Weeks

 TemperatureHumidityPressure
High86 °F (May 21, 2:50 pm)100% (May 18, 4:20 am)30.07 "Hg (May 18, 4:20 am)
Low55 °F (May 12, 6:20 am)39% (May 13, 6:50 pm)29.71 "Hg (May 16, 4:50 pm)
Average68 °F76%29.90 "Hg
* Reported May 7 1:20 pm — May 22 1:20 pm, Latiano. Weather by CustomWeather, © 2024

Note: Actual official high and low records may vary slightly from our data, if they occured in-between our weather recording intervals... More about our weather records

Latiano Weather History for the Previous 24 Hours

Scroll right to see more
 ConditionsComfort  
Time TempWeatherWind HumidityBarometerVisibility
1:20 pm
Wed, May 22
73 °FPassing clouds.8 mph61%29.92 "HgN/A
12:50 pm73 °FPassing clouds.12 mph57%29.92 "HgN/A
12:20 pm73 °FPassing clouds.12 mph57%29.92 "HgN/A
11:50 am73 °FPassing clouds.9 mph61%29.92 "HgN/A
11:20 am73 °FPassing clouds.8 mph57%29.92 "HgN/A
10:50 am72 °FPassing clouds.8 mph57%29.92 "HgN/A
10:20 am72 °FPassing clouds.9 mph57%29.92 "HgN/A
9:50 am72 °FSunny.8 mph53%29.92 "Hg10 mi
9:20 am72 °FSunny.7 mph50%29.92 "Hg10 mi
8:50 am72 °FPassing clouds.7 mph50%29.92 "HgN/A
8:20 am72 °FPassing clouds.6 mph47%29.92 "HgN/A
7:50 am68 °FPassing clouds.7 mph53%29.92 "HgN/A
7:20 am68 °FSunny.7 mph53%29.92 "Hg10 mi
6:50 am66 °FSunny.8 mph52%29.92 "Hg10 mi
6:20 am66 °FSunny.9 mph52%29.89 "Hg10 mi
5:50 am66 °FSunny.9 mph52%29.89 "Hg10 mi
5:20 am66 °FClear.10 mph52%29.89 "Hg10 mi
4:50 am66 °FClear.10 mph52%29.89 "Hg10 mi
4:20 am66 °FClear.10 mph52%29.89 "Hg10 mi
3:50 am66 °FClear.7 mph52%29.89 "Hg10 mi
3:20 am68 °FClear.8 mph49%29.89 "Hg10 mi
2:50 am68 °FClear.8 mph53%29.89 "Hg10 mi
2:20 am68 °FClear.8 mph53%29.89 "Hg10 mi
1:50 am70 °FClear.9 mph53%29.89 "Hg10 mi
1:20 am70 °FClear.8 mph60%29.89 "Hg10 mi
12:50 am72 °FClear.7 mph61%29.89 "Hg10 mi
12:20 am72 °FClear.6 mph69%29.89 "Hg10 mi
11:50 pm
Tue, May 21
72 °FClear.8 mph73%29.86 "Hg10 mi
11:20 pm72 °FClear.8 mph69%29.86 "Hg10 mi
10:50 pm72 °FClear.7 mph69%29.86 "Hg10 mi
10:20 pm72 °FClear.7 mph69%29.86 "Hg10 mi
9:50 pm73 °FClear.7 mph61%29.83 "Hg10 mi
9:20 pm73 °FClear.8 mph61%29.83 "Hg10 mi
8:50 pm75 °FClear.9 mph57%29.80 "Hg10 mi
7:50 pm79 °FSunny.7 mph54%29.80 "Hg10 mi
7:20 pm81 °FSunny.12 mph51%29.80 "Hg10 mi
6:50 pm82 °FSunny.15 mph40%29.77 "Hg10 mi
6:20 pm84 °FSunny.16 mph40%29.77 "Hg10 mi
5:50 pm84 °FSunny.16 mph40%29.77 "Hg10 mi
5:20 pm84 °FSunny.16 mph43%29.77 "Hg10 mi
4:50 pm84 °FSunny.15 mph43%29.77 "Hg10 mi
4:20 pm86 °FSunny.16 mph40%29.77 "Hg10 mi
3:20 pm86 °FSunny.14 mph40%29.77 "Hg10 mi
2:50 pm86 °FPassing clouds.10 mph43%29.77 "HgN/A
Weather by CustomWeather, © 2024

See weather overview